Погода в Орехово

Россия / Калужская область     55°10′40″N   36°57′56″E
темп.,
°C
ветер,
м/с
пор.,
м/с
влажн.,
%
обл.,
%
осадки,
мм/ч
давл.,
гПа
погр.,
м
20 апреля, вт
вт2000:00+3в51195100 0.1 1023677
03:00+2всв51196100 0.5 1022512
06:00+2всв41196100 0.2 1021581
09:00+4всв51181100 0.3 1020575
12:00+3всв51194100 0.0 1020609
15:00+2всв51196100 0.4 1019487
18:00+2всв51296100 0.4 1016561
21:00+2всв51297100 0.8 1013672
21 апреля, ср
ср2100:00+2всв51297100 1.7 1009726
03:00+1св41298100 6.8 1005766
06:00+1с4998100 2.8 1001372
09:00+1зюз3797100 4.1 1001309
12:00+2юз4997100 0.3 1003615
15:00+3юз5992100 0.3 1006966
18:00+3юз5992100 0.1 10081046
21:00+3юз4109679 0.2 1010585
22 апреля, чт
чт2200:00+2ю31098100 0.0 1012258
03:00+1ююз2898100 0.0 1013192
06:00+2ююз2998100 0.0 1014317
09:00+6ююз468699 0.0 1015604
12:00+9юз457079 0.6 10161104
15:00+11ююз355929 0.9 10161567
18:00+10ю36728 0.1 1016301
21:00+5ююв27885 0.1 1018111
23 апреля, пт
пт2300:00+4ююв27915 0.0 1017127
03:00+3ююв39931 0.0 1017180
06:00+4ююв310965 0.0 1016242
09:00+10ю48815 0.0 1015476
12:00+14ю576650 0.1 10151330
15:00+15ю5869100 2.4 10131269
18:00+13ю41170100 0.9 1012694
21:00+9ююв31292100 2.2 1012316
24 апреля, сб
сб2400:00+8ю3109566 0.6 1011342
03:00+8ю41094100 1.1 1009715
06:00+3сз3697100 1.4 1010420
09:00+2зсз2799100 5.3 1010311
12:00+4зсз2596100 1.4 1009399
15:00+5з2387100 2.6 1009570
18:00+6зюз138182 0.5 1007493
21:00+3з3997100 1.8 1008704